This is the latest recevied weather packets stored in our database for station/object IZ8NVY-15. If no packets are shown the sender has not sent any weather packets the latest 10 day(s).
| Time | Temp. | Humidity | Pressure | Rain* | Wind** | Luminosity | Snow |
|---|---|---|---|---|---|---|---|
| 1777697598 | 11.67° C | 59% | 986 hPa | - | - | - | - |
| 1777693997 | 11.11° C | 56% | 985.4 hPa | - | - | - | - |
| 1777690396 | 11.11° C | 50% | 985.4 hPa | - | - | - | - |
| 1777686795 | 11.67° C | 48% | 985.9 hPa | - | - | - | - |
| 1777676003 | 11.67° C | 43% | 985.7 hPa | - | - | - | - |
| 1777672402 | 12.22° C | 42% | 985.7 hPa | - | - | - | - |
| 1777668792 | 12.22° C | 41% | 985.9 hPa | - | - | - | - |
| 1777661600 | 13.33° C | 39% | 984.8 hPa | - | - | - | - |
| 1777657989 | 14.44° C | 36% | 984.4 hPa | - | - | - | - |
| 1777654389 | 17.78° C | 35% | 983.4 hPa | - | - | - | - |
| 1777650789 | 18.89° C | 36% | 983.2 hPa | - | - | - | - |
| 1777647201 | 20.56° C | 37% | 983.8 hPa | - | - | - | - |
| 1777643584 | 20.56° C | 37% | 983.9 hPa | - | - | - | - |
| 1777639995 | 21.11° C | 39% | 984.2 hPa | - | - | - | - |
| 1777636386 | 20.56° C | 42% | 984.4 hPa | - | - | - | - |
| 1777625592 | 20.56° C | 53% | 984.6 hPa | - | - | - | - |
| 1777621992 | 16.11° C | 56% | 985 hPa | - | - | - | - |
| 1777611176 | 12.22° C | 59% | 983.6 hPa | - | - | - | - |
| 1777582380 | 13.33° C | 54% | 984.3 hPa | - | - | - | - |
| 1777575169 | 14.44° C | 56% | 983.9 hPa | - | - | - | - |
| 1777567967 | 17.22° C | 57% | 982.6 hPa | - | - | - | - |
| 1777564367 | 20.56° C | 56% | 982.4 hPa | - | - | - | - |
| 1777560765 | 22.22° C | 59% | 982.2 hPa | - | - | - | - |
| 1777553564 | 22.78° C | 78% | 982 hPa | - | - | - | - |
| 1777546363 | 18.89° C | 82% | 982.3 hPa | - | - | - | - |
* Rain since midnight (hover to see other rain measurements)
** Current wind speed in m/s (hover to see current wind gust speed)